DW9982 Weather Reports


time (UTC)temp
F
wind
direction
speed
knots
gust
knots
rain 1hr
in
rain 24hr
in
rain mn
in
humidity
%
barometer
mb
20260906175101 95 126 0.0 0.9 0.00 0.00 0.00 52 1013.8
20260906174610 95 125 0.0 0.9 0.00 0.00 0.00 51 1013.9
20260906174059 96 65 0.0 0.0 0.00 0.00 0.00 50 1013.9
20260906173558 97 328 0.0 0.0 0.00 0.00 0.00 51 1013.9
20260906173104 96 96 0.0 0.0 0.00 0.00 0.00 52 1014.1
20260906172559 96 113 0.0 0.0 0.00 0.00 0.00 51 1014.1
20260906172059 96 293 0.0 4.3 0.00 0.00 0.00 52 1014.2
20260906171556 95 98 0.0 4.3 0.00 0.00 0.00 52 1014.3
20260906171055 96 137 0.0 0.9 0.00 0.00 0.00 52 1014.4
20260906170555 96 98 0.0 0.0 0.00 0.00 0.00 53 1014.4
20260906170054 96 331 0.0 0.0 0.00 0.00 0.00 55 1014.5
20260906165553 95 130 0.0 0.0 0.00 0.00 0.00 56 1014.6
20260906165053 94 111 0.0 0.0 0.00 0.00 0.00 56 1014.7
20260906164556 94 219 0.0 0.0 0.00 0.00 0.00 57 1014.7
20260906164052 94 95 0.0 0.0 0.00 0.00 0.00 57 1014.7
20260906163653 94 104 0.0 0.0 0.00 0.00 0.00 58 1014.7
20260906163058 95 120 0.0 0.0 0.00 0.00 0.00 57 1014.8
20260906162550 94 93 0.0 0.0 0.00 0.00 0.00 59 1014.8
20260906162052 93 105 0.0 0.0 0.00 0.00 0.00 60 1014.7
20260906161548 93 65 0.0 0.0 0.00 0.00 0.00 59 1014.7
20260906161046 92 134 0.0 0.0 0.00 0.00 0.00 59 1014.7
20260906160546 92 126 0.0 0.0 0.00 0.00 0.00 59 1014.6
20260906160045 92 87 0.0 0.0 0.00 0.00 0.00 62 1014.6
20260906155544 91 159 0.0 0.0 0.00 0.00 0.00 62 1014.6
20260906155047 91 103 0.0 0.0 0.00 0.00 0.00 64 1014.5
20260906154542 91 75 0.0 0.0 0.00 0.00 0.00 64 1014.6
20260906154041 90 155 0.0 0.9 0.00 0.00 0.00 64 1014.6
20260906153541 90 139 0.0 0.9 0.00 0.00 0.00 65 1014.6
20260906153040 90 120 0.0 0.0 0.00 0.00 0.00 65 1014.6
20260906152539 89 103 0.0 0.0 0.00 0.00 0.00 65 1014.6
20260906152044 90 128 0.0 0.0 0.00 0.00 0.00 65 1014.6
20260906151538 89 162 0.0 0.0 0.00 0.00 0.00 67 1014.6
20260906151038 89 95 0.0 0.0 0.00 0.00 0.00 66 1014.7
20260906150539 89 95 0.0 0.0 0.00 0.00 0.00 67 1014.6
20260906150037 89 113 0.0 0.0 0.00 0.00 0.00 65 1014.6
20260906145536 89 113 0.0 0.0 0.00 0.00 0.00 66 1014.7
20260906145036 88 103 0.0 0.0 0.00 0.00 0.00 68 1014.7
20260906144533 88 118 0.0 0.0 0.00 0.00 0.00 68 1014.7
20260906144034 87 106 0.0 0.0 0.00 0.00 0.00 70 1014.7
20260906143532 87 87 0.0 0.0 0.00 0.00 0.00 70 1014.7
20260906143031 86 120 0.0 0.0 0.00 0.00 0.00 70 1014.6
20260906142531 86 93 0.0 0.0 0.00 0.00 0.00 70 1014.6
20260906142031 86 92 0.0 0.9 0.00 0.00 0.00 71 1014.6
20260906141530 86 109 0.0 0.9 0.00 0.00 0.00 69 1014.7
20260906141032 86 74 0.0 0.0 0.00 0.00 0.00 71 1014.8
20260906140530 87 86 0.0 0.0 0.00 0.00 0.00 68 1014.7
20260906140026 87 99 0.0 0.0 0.00 0.00 0.00 70 1014.7
20260906135525 86 99 0.0 0.0 0.00 0.00 0.00 72 1014.6
20260906135024 85 73 0.0 0.0 0.00 0.00 0.00 73 1014.6
20260906134523 84 101 0.0 0.0 0.00 0.00 0.00 73 1014.6
20260906134023 84 68 0.0 0.0 0.00 0.00 0.00 73 1014.6
20260906133527 84 85 0.0 0.0 0.00 0.00 0.00 73 1014.5
20260906133027 84 89 0.0 0.0 0.00 0.00 0.00 73 1014.5
20260906132521 84 98 0.0 0.0 0.00 0.00 0.00 73 1014.4
20260906132019 83 84 0.0 0.0 0.00 0.00 0.00 75 1014.4
20260906131518 83 84 0.0 0.0 0.00 0.00 0.00 76 1014.5
20260906131016 82 84 0.0 0.0 0.00 0.00 0.00 76 1014.3
20260906130516 82 83 0.0 0.0 0.00 0.00 0.00 77 1014.3
20260906130014 81 84 0.0 0.0 0.00 0.00 0.00 79 1014.2
20260906125513 80 84 0.0 0.0 0.00 0.00 0.00 80 1014.3
20260906125011 79 84 0.0 0.0 0.00 0.00 0.00 82 1014.1
20260906124511 78 84 0.0 0.0 0.00 0.00 0.00 84 1014.1
20260906124011 78 84 0.0 0.0 0.00 0.00 0.00 83 1014.0
20260906123510 77 84 0.0 0.0 0.00 0.00 0.00 84 1014.0
20260906123014 77 84 0.0 0.0 0.00 0.00 0.00 84 1013.9
20260906122510 77 84 0.0 0.0 0.00 0.00 0.00 84 1013.8
20260906122009 77 86 0.0 0.0 0.00 0.00 0.00 84 1013.7
20260906121508 77 86 0.0 0.0 0.00 0.00 0.00 84 1013.7
20260906121008 77 86 0.0 0.0 0.00 0.00 0.00 83 1013.7
20260906120508 76 113 0.0 0.0 0.00 0.00 0.00 84 1013.7
20260906120007 76 98 0.0 0.0 0.00 0.00 0.00 85 1013.6
20260906115507 76 98 0.0 0.0 0.00 0.00 0.00 85 1013.6
20260906115006 76 98 0.0 0.0 0.00 0.00 0.00 85 1013.6
20260906114520 76 98 0.0 0.0 0.00 0.00 0.00 85 1013.6
20260906114006 76 113 0.0 0.0 0.00 0.00 0.00 87 1013.5
20260906113508 75 113 0.0 0.0 0.00 0.00 0.00 89 1013.5
20260906113006 74 101 0.0 0.0 0.00 0.00 0.00 91 1013.5
20260906112505 73 96 0.0 0.0 0.00 0.00 0.00 93 1013.5
20260906112005 74 96 0.0 0.0 0.00 0.00 0.00 93 1013.5
20260906111508 74 96 0.0 0.0 0.00 0.00 0.00 93 1013.5
20260906111004 74 96 0.0 0.0 0.00 0.00 0.00 93 1013.4
20260906110507 74 96 0.0 0.0 0.00 0.00 0.00 94 1013.4
20260906110007 74 96 0.0 0.0 0.00 0.00 0.00 94 1013.4
20260906105506 74 96 0.0 0.0 0.00 0.00 0.00 94 1013.5
20260906105003 74 96 0.0 0.0 0.00 0.00 0.00 94 1013.5
20260906104506 74 96 0.0 0.0 0.00 0.00 0.00 94 1013.5
20260906104003 74 96 0.0 0.0 0.00 0.00 0.00 94 1013.5
20260906103502 74 96 0.0 0.0 0.00 0.00 0.00 94 1013.5
20260906103002 74 96 0.0 0.0 0.00 0.00 0.00 94 1013.4
20260906102501 74 96 0.0 0.0 0.00 0.00 0.00 93 1013.4
20260906102002 74 96 0.0 0.0 0.00 0.00 0.00 93 1013.3
20260906101604 74 96 0.0 0.0 0.00 0.00 0.00 93 1013.3
20260906101059 74 96 0.0 0.0 0.00 0.00 0.00 93 1013.3
20260906100559 74 96 0.0 0.0 0.00 0.00 0.00 93 1013.2
20260906100058 74 96 0.0 0.0 0.00 0.00 0.00 93 1013.1
20260906095558 74 96 0.0 0.0 0.00 0.00 0.00 93 1013.1
20260906095058 74 96 0.0 0.0 0.00 0.00 0.00 93 1013.1
20260906094558 74 96 0.0 0.0 0.00 0.00 0.00 92 1013.1
20260906094057 74 96 0.0 0.0 0.00 0.00 0.00 92 1013.0
20260906093557 74 96 0.0 0.0 0.00 0.00 0.00 92 1013.0
20260906093057 74 96 0.0 0.0 0.00 0.00 0.00 92 1012.9
20260906092556 74 96 0.0 0.0 0.00 0.00 0.00 91 1012.9
20260906092056 75 96 0.0 0.0 0.00 0.00 0.00 92 1013.0
20260906091556 75 96 0.0 0.0 0.00 0.00 0.00 92 1012.9
20260906091054 75 96 0.0 0.0 0.00 0.00 0.00 91 1012.9
20260906090553 75 96 0.0 0.0 0.00 0.00 0.00 91 1012.8
20260906090053 75 96 0.0 0.0 0.00 0.00 0.00 91 1012.8
20260906085553 75 96 0.0 0.0 0.00 0.00 0.00 91 1012.8
20260906085053 75 96 0.0 0.0 0.00 0.00 0.00 91 1012.7
20260906084553 75 96 0.0 0.0 0.00 0.00 0.00 91 1012.7
20260906084052 75 96 0.0 0.0 0.00 0.00 0.00 91 1012.6
20260906083553 75 96 0.0 0.0 0.00 0.00 0.00 91 1012.7
20260906083054 75 96 0.0 0.0 0.00 0.00 0.00 91 1012.7
20260906082551 75 96 0.0 0.0 0.00 0.00 0.00 91 1012.7
20260906082051 75 96 0.0 0.0 0.00 0.00 0.00 91 1012.7
20260906081555 75 96 0.0 0.0 0.00 0.00 0.00 91 1012.8
20260906081050 75 96 0.0 0.0 0.00 0.00 0.00 90 1012.8
20260906080550 76 96 0.0 0.0 0.00 0.00 0.00 90 1012.7
20260906080051 76 96 0.0 0.0 0.00 0.00 0.00 90 1012.7
20260906075548 76 96 0.0 0.0 0.00 0.00 0.00 90 1012.5
20260906075048 76 96 0.0 0.0 0.00 0.00 0.00 90 1012.6
20260906074550 76 96 0.0 0.0 0.00 0.00 0.00 89 1012.7
20260906074049 76 96 0.0 0.0 0.00 0.00 0.00 89 1012.6
20260906073547 76 96 0.0 0.0 0.00 0.00 0.00 89 1012.7
20260906073047 76 96 0.0 0.0 0.00 0.00 0.00 89 1012.7
20260906072549 76 96 0.0 0.0 0.00 0.00 0.00 89 1012.6
20260906072045 76 96 0.0 0.0 0.00 0.00 0.00 89 1012.6
20260906071546 76 96 0.0 0.0 0.00 0.00 0.00 88 1012.6
20260906071044 76 96 0.0 0.0 0.00 0.00 0.00 87 1012.6
20260906070543 76 96 0.0 0.0 0.00 0.00 0.00 85 1012.6
20260906070043 77 96 0.0 0.0 0.00 0.00 0.00 85 1012.6
20260906065545 77 96 0.0 0.0 0.00 0.00 0.00 85 1012.6
20260906065041 77 96 0.0 0.0 0.00 0.00 0.00 84 1012.7
20260906064540 77 96 0.0 0.0 0.00 0.00 0.00 82 1012.8
20260906064039 77 96 0.0 0.0 0.00 0.00 0.00 82 1012.9
20260906063542 77 96 0.0 0.0 0.00 0.00 0.00 82 1012.9
20260906063038 77 96 0.0 0.0 0.00 0.00 0.00 81 1012.8
20260906062538 78 96 0.0 0.0 0.00 0.00 0.00 81 1012.8
20260906062039 78 96 0.0 0.0 0.00 0.00 0.00 81 1012.9
20260906061536 78 96 0.0 0.0 0.00 0.00 0.00 80 1012.8
20260906061035 78 96 0.0 0.0 0.00 0.00 0.00 81 1012.9
20260906060535 78 96 0.0 0.0 0.00 0.00 0.00 81 1013.0
20260906060046 78 96 0.0 0.0 0.00 0.00 0.00 81 1012.9
20260906055534 78 96 0.0 0.0 0.00 0.00 0.00 80 1012.9
20260906055034 78 96 0.0 0.0 0.00 0.00 0.00 80 1013.1
20260906054533 78 96 0.0 0.0 0.00 0.00 0.00 79 1013.1
20260906054032 79 96 0.0 0.0 0.00 0.00 0.00 78 1013.1
20260906053534 79 96 0.0 0.0 0.00 0.00 0.00 77 1013.2
20260906053032 79 96 0.0 0.0 0.00 0.00 0.00 77 1013.2
20260906052536 79 96 0.0 0.0 0.00 0.00 0.00 76 1013.2
20260906052028 80 96 0.0 0.0 0.00 0.00 0.00 76 1013.1
20260906051527 80 96 0.0 0.0 0.00 0.00 0.00 77 1013.0
20260906051027 80 96 0.0 0.0 0.00 0.00 0.00 76 1013.1
20260906050526 80 96 0.0 0.0 0.00 0.00 0.00 77 1013.0
20260906050025 80 96 0.0 0.0 0.00 0.00 0.00 76 1013.0
20260906045528 80 96 0.0 0.0 0.00 0.00 0.00 75 1013.0
20260906045125 80 96 0.0 0.0 0.00 0.00 0.00 74 1013.0
20260906044525 81 96 0.0 0.0 0.00 0.00 0.00 75 1013.1
20260906044024 81 96 0.0 0.0 0.00 0.00 0.00 74 1013.1
20260906043524 81 96 0.0 0.0 0.00 0.00 0.00 73 1013.1
20260906043027 82 96 0.0 0.0 0.00 0.00 0.00 72 1013.1
20260906042525 82 96 0.0 0.0 0.00 0.00 0.00 71 1013.0
20260906042024 82 96 0.0 0.0 0.00 0.00 0.00 70 1012.9
20260906041529 83 96 0.0 0.0 0.00 0.00 0.00 69 1012.9
20260906041025 83 96 0.0 0.0 0.00 0.00 0.00 69 1012.9
20260906040523 83 96 0.0 0.0 0.00 0.00 0.00 69 1012.9
20260906040033 83 96 0.0 0.0 0.00 0.00 0.00 70 1012.8
20260906035533 83 118 0.0 0.0 0.00 0.00 0.00 71 1012.8
20260906035023 82 119 0.0 0.0 0.00 0.00 0.00 71 1012.8
20260906034529 83 118 0.0 0.0 0.00 0.00 0.00 71 1012.7
20260906034022 83 118 0.0 0.0 0.00 0.00 0.00 70 1012.6
20260906033522 83 119 0.0 0.0 0.00 0.00 0.00 70 1012.6
20260906033023 84 119 0.0 0.0 0.00 0.00 0.00 70 1012.6
20260906032523 84 119 0.0 0.0 0.00 0.00 0.00 71 1012.6
20260906032026 84 119 0.0 0.0 0.00 0.00 0.00 70 1012.5
20260906031535 84 119 0.0 0.0 0.00 0.00 0.00 70 1012.5
20260906031023 84 118 0.0 0.0 0.00 0.00 0.00 70 1012.5
20260906030522 84 119 0.0 0.0 0.00 0.00 0.00 69 1012.4
20260906030022 84 119 0.0 0.0 0.00 0.00 0.00 70 1012.3
20260906025526 84 119 0.0 0.0 0.00 0.00 0.00 69 1012.3
20260906025021 85 119 0.0 0.0 0.00 0.00 0.00 68 1012.2
20260906024520 85 119 0.0 0.0 0.00 0.00 0.00 68 1012.1
20260906024023 86 118 0.0 0.0 0.00 0.00 0.00 68 1012.0
20260906023521 86 86 0.0 0.0 0.00 0.00 0.00 68 1012.0
20260906023020 86 84 0.0 0.0 0.00 0.00 0.00 67 1011.9
20260906022520 86 84 0.0 0.0 0.00 0.00 0.00 67 1011.9
20260906022020 86 84 0.0 0.0 0.00 0.00 0.00 67 1011.8
20260906021522 86 84 0.0 0.0 0.00 0.00 0.00 67 1011.8
20260906021024 86 84 0.0 0.0 0.00 0.00 0.00 66 1011.7
20260906020520 87 83 0.0 0.0 0.00 0.00 0.00 65 1011.6
20260906020019 87 84 0.0 0.0 0.00 0.00 0.00 64 1011.6
20260906015519 87 84 0.0 0.0 0.00 0.00 0.00 64 1011.5
20260906015020 88 84 0.0 0.0 0.00 0.00 0.00 63 1011.4
20260906014524 88 84 0.0 0.0 0.00 0.00 0.00 63 1011.4
20260906014021 88 84 0.0 0.0 0.00 0.00 0.00 63 1011.4
20260906013519 88 83 0.0 0.0 0.00 0.00 0.00 63 1011.3
20260906013019 88 83 0.0 0.0 0.00 0.00 0.00 62 1011.2
20260906012520 89 84 0.0 0.0 0.00 0.00 0.00 61 1011.2
20260906012022 89 84 0.0 0.0 0.00 0.00 0.00 61 1011.2
20260906011519 89 84 0.0 0.0 0.00 0.00 0.00 60 1011.2
20260906011017 89 65 0.0 0.0 0.00 0.00 0.00 60 1011.2
20260906010517 89 67 0.0 0.0 0.00 0.00 0.00 60 1011.2
20260906010017 89 82 0.0 0.0 0.00 0.00 0.00 60 1011.1
20260906005517 90 82 0.0 0.0 0.00 0.00 0.00 59 1011.1
20260906005017 90 82 0.0 0.0 0.00 0.00 0.00 58 1011.0
20260906004517 91 82 0.0 0.0 0.00 0.00 0.00 57 1011.1
20260906004016 91 82 0.0 0.0 0.00 0.00 0.00 57 1011.0
20260906003516 91 82 0.0 0.0 0.00 0.00 0.00 56 1011.0
20260906003016 92 71 0.0 0.0 0.00 0.00 0.00 56 1011.1
20260906002516 92 70 0.0 0.0 0.00 0.00 0.00 56 1011.1
20260906002016 93 71 0.0 0.0 0.00 0.00 0.00 54 1011.0
20260906001517 93 71 0.0 0.0 0.00 0.00 0.00 53 1011.2
20260906001020 94 71 0.0 0.0 0.00 0.00 0.00 53 1011.1
20260906000515 94 355 0.0 0.0 0.00 0.00 0.00 53 1011.0
20260906000116 94 355 0.0 0.0 0.00 0.00 0.00 52 1011.0
20260905235515 95 21 0.0 2.6 0.00 0.00 0.00 51 1011.0
20260905235019 95 101 0.0 0.9 0.00 0.00 0.00 51 1010.9
20260905234514 95 85 0.0 0.0 0.00 0.00 0.00 51 1010.9
20260905234015 95 66 0.0 0.0 0.00 0.00 0.00 51 1010.9
20260905233515 95 113 0.0 0.0 0.00 0.00 0.00 50 1010.9
20260905233017 96 112 0.0 0.0 0.00 0.00 0.00 50 1010.9
20260905232514 96 15 0.0 0.0 0.00 0.00 0.00 50 1010.9
20260905232014 96 78 0.0 0.0 0.00 0.00 0.00 49 1010.8
20260905231514 96 94 0.0 0.0 0.00 0.00 0.00 49 1010.8
20260905231014 96 101 0.0 0.0 0.00 0.00 0.00 49 1010.8
20260905230513 96 136 0.0 0.0 0.00 0.00 0.00 49 1010.8
20260905230013 97 73 0.0 0.0 0.00 0.00 0.00 49 1010.8
20260905225514 97 249 0.0 0.0 0.00 0.00 0.00 48 1010.8
20260905225013 97 73 0.0 0.0 0.00 0.00 0.00 48 1010.8
20260905224513 97 287 0.0 0.0 0.00 0.00 0.00 49 1010.8
20260905224014 97 86 0.0 3.5 0.00 0.00 0.00 48 1010.7
20260905223511 97 74 0.9 3.5 0.00 0.00 0.00 48 1010.8
20260905223011 97 53 0.0 2.6 0.00 0.00 0.00 49 1010.8
20260905222511 97 78 0.0 7.0 0.00 0.00 0.00 49 1010.9
20260905222010 97 58 0.0 4.3 0.00 0.00 0.00 48 1010.9
20260905221511 97 5 0.9 4.3 0.00 0.00 0.00 48 1011.0
20260905221011 98 91 0.0 0.9 0.00 0.00 0.00 47 1011.0
20260905220513 98 81 0.0 1.7 0.00 0.00 0.00 48 1011.0
20260905220012 98 102 0.0 2.6 0.00 0.00 0.00 47 1011.1
20260905215508 99 89 0.0 7.0 0.00 0.00 0.00 46 1011.2
20260905215007 99 96 0.0 7.0 0.00 0.00 0.00 46 1011.2
20260905214507 100 16 0.0 0.0 0.00 0.00 0.00 43 1011.2
20260905214007 100 136 0.0 0.0 0.00 0.00 0.00 40 1011.3
20260905213507 100 250 0.0 0.0 0.00 0.00 0.00 39 1011.4
20260905213009 100 150 0.0 0.0 0.00 0.00 0.00 39 1011.3
20260905212508 101 148 0.0 0.0 0.00 0.00 0.00 39 1011.3
20260905212006 101 176 0.0 0.0 0.00 0.00 0.00 39 1011.4
20260905211504 100 290 0.0 0.0 0.00 0.00 0.00 39 1011.5
20260905211006 100 143 0.0 0.0 0.00 0.00 0.00 40 1011.5
20260905210503 100 238 0.0 0.0 0.00 0.00 0.00 39 1011.6
20260905210002 100 139 0.0 0.0 0.00 0.00 0.00 39 1011.6
20260905205502 100 191 0.0 0.0 0.00 0.00 0.00 40 1011.7
20260905205002 100 125 0.0 0.0 0.00 0.00 0.00 41 1011.7
20260905204502 99 312 0.0 0.0 0.00 0.00 0.00 41 1011.7
20260905204002 99 127 0.0 0.0 0.00 0.00 0.00 40 1011.8
20260905203600 100 113 0.0 0.0 0.00 0.00 0.00 41 1011.9
20260905203102 100 291 0.0 0.0 0.00 0.00 0.00 42 1012.0
20260905202558 99 277 0.0 0.0 0.00 0.00 0.00 40 1012.1
20260905202058 99 253 0.0 0.0 0.00 0.00 0.00 41 1012.1
20260905201559 99 98 0.0 0.0 0.00 0.00 0.00 40 1012.2
20260905201101 100 120 0.0 0.0 0.00 0.00 0.00 40 1012.2
20260905200557 100 158 0.0 0.0 0.00 0.00 0.00 41 1012.3
20260905200127 99 108 0.0 7.8 0.00 0.00 0.00 41 1012.4
20260905195559 100 126 0.9 7.8 0.00 0.00 0.00 41 1012.4
20260905195056 101 139 0.0 0.0 0.00 0.00 0.00 40 1012.5
20260905194556 101 157 0.0 0.0 0.00 0.00 0.00 40 1012.5
20260905194059 101 147 0.0 0.0 0.00 0.00 0.00 41 1012.4
20260905193556 100 146 0.0 5.2 0.00 0.00 0.00 41 1012.6
20260905193055 101 163 0.0 7.8 0.00 0.00 0.00 40 1012.7
20260905192554 101 148 0.0 0.0 0.00 0.00 0.00 40 1012.7
20260905192052 100 141 0.0 0.0 0.00 0.00 0.00 41 1012.7
20260905191552 100 113 0.0 0.0 0.00 0.00 0.00 41 1012.7
20260905191050 100 105 0.0 0.0 0.00 0.00 0.00 43 1012.8
20260905190551 99 137 0.0 0.0 0.00 0.00 0.00 42 1012.8
20260905190053 99 253 0.0 0.0 0.00 0.00 0.00 43 1012.9
20260905185550 99 297 0.0 0.0 0.00 0.00 0.00 44 1013.0
20260905185047 98 336 0.0 0.0 0.00 0.00 0.00 44 1013.0
20260905184548 98 279 0.0 0.0 0.00 0.00 0.00 44 1013.1
20260905184052 97 219 0.0 5.2 0.00 0.00 0.00 46 1013.2
20260905183547 97 92 0.0 7.0 0.00 0.00 0.00 46 1013.3
20260905183047 97 256 0.0 5.2 0.00 0.00 0.00 47 1013.3
20260905182546 96 281 0.0 5.2 0.00 0.00 0.00 45 1013.4
20260905182050 97 270 0.0 1.7 0.00 0.00 0.00 46 1013.4
20260905181549 97 117 0.0 0.9 0.00 0.00 0.00 45 1013.5
20260905181046 98 155 0.0 4.3 0.00 0.00 0.00 44 1013.6
20260905180546 98 142 0.9 5.2 0.00 0.00 0.00 44 1013.7
20260905180108 98 116 0.0 6.1 0.00 0.00 0.00 45 1013.7
20260905175545 97 127 0.0 6.1 0.00 0.00 0.00 45 1013.7